Location: Christianberg
(48.9086°N, 14.0209°E)
Time: 22:23:47
(UTC+00:00)

NOSS 5 (C) - Pass Details

Date: 20 June 2021
Orbit: 379 x 1722 km, 63.3° (Epoch: 04 August)

Event Time Altitude Azimuth Distance (km) Brightness Sun altitude
Rises 01:16:06 0° 316° (NW) 2,268 8.2 -12.0°
Reaches altitude 10° 01:18:00 10° 314° (NW) 1,441 7.1 -11.8°
Maximum altitude 01:21:03 70° 230° (SW) 465 4.2 -11.6°
Drops below altitude 10° 01:24:43 10° 147° (SSE) 1,726 7.1 -11.3°
Sets 01:27:11 0° 145° (SE) 2,783 8.2 -11.0°
